Location: Gull Harbor
(47.1000°N, 122.9000°W)
Time: 15:30:33
(UTC-07:00)

N. Korean satellite - Visible Passes

Search period start: 22 October 2019 00:00
Search period end: 01 November 2019 00:00
Orbit: 455 x 508 km, 97.2° (Epoch: 21 October)

Date Brightness Start Highest point End Pass type
(mag) Time Alt. Az. Time Alt. Az. Time Alt. Az.
22 Oct 9.5 06:23:45 10° NE 06:26:38 22° E 06:29:32 10° SE visible
23 Oct 10.4 05:59:47 10° ENE 06:01:07 12° E 06:02:27 10° ESE visible
24 Oct 7.0 07:05:55 10° NNE 07:09:34 70° ESE 07:13:14 10° S visible
24 Oct 10.0 19:19:16 10° SW 19:21:16 15° W 19:23:17 10° NW visible
25 Oct 8.6 06:40:49 10° NNE 06:44:12 34° E 06:47:34 10° SSE visible
25 Oct 8.9 18:52:44 10° SSW 18:55:45 28° W 18:58:49 10° NW visible
26 Oct 9.8 06:16:07 10° NE 06:18:44 18° E 06:21:21 10° SE visible
28 Oct 7.5 06:58:03 10° NNE 07:01:41 56° E 07:05:20 10° S visible
28 Oct 9.8 19:10:50 10° SW 19:13:17 18° W 19:15:46 10° NW visible
29 Oct 9.0 06:33:02 10° NE 06:36:16 28° E 06:39:31 10° SSE visible
29 Oct 8.5 18:44:35 10° SSW 18:47:47 35° W 18:51:04 10° NNW visible
30 Oct 10.0 06:08:31 10° NE 06:10:46 15° E 06:13:01 10° SE visible
31 Oct 6.6 07:15:24 10° NNE 07:19:06 88° WNW 07:22:49 10° SSW visible
31 Oct 10.3 19:29:35 10° WSW 19:30:50 12° W 19:32:05 10° WNW visible
